Flag for U.S.A. Weather past 2 weeks in Menominee, Michigan, U.S.A.

Now
54 °F

Mostly cloudy.


Feels Like: 50 °F
Forecast: 43 / 55 °F
Wind: 12 mph from Northeast

Location: Menominee Weather Reporting Station

Current Time: May 30, 2015 at 1:58:27 PM

Latest Report: May 30, 2015 at 1:15 PM


Visibility: 10 mi

Pressure: 30.18 "Hg

Humidity: 63%

Dew point: 41 °F

Location of MenomineeLocation

Historic Weather in Menominee — Graph

°F

Menominee temperature yesterday

Maximum temperature yesterday: 79 °F (at 3:15 PM)
Minimum temperature yesterday: 63 °F (at 12:55 AM)
Average temperature yesterday: 67 °F

Past Weeks' High & Low Weather Summary

 TemperatureHumidityPressure
High79 °F (May 29, 3:15 PM)94% (May 16, 6:35 AM)30.29 "Hg (May 16, 6:35 AM)
Low34 °F (May 20, 3:15 AM)25% (May 21, 1:15 PM)29.60 "Hg (May 27, 12:35 AM)
Average57 °F67%30.00 "Hg
* Reported May 15 12:15 PM — May 30 12:35 PM, Menominee, Weather by CustomWeather, © 2015

Note: Actual official high and low records may vary slightly from our data, if they occured in-between our weather recording intervals... More about our weather records

Advertising

Menominee weather history for previous 24 hours

 ConditionsComfort  
Time TempWeatherWind HumidityBarometerVisibility
12:35 PM
Sat, May 30
54 °FBroken clouds.14 mph63%30.17 "Hg10 mi
12:15 PM54 °FPassing clouds.16 mph58%30.17 "Hg10 mi
11:55 AM54 °FPartly sunny.17 mph58%30.16 "Hg10 mi
11:35 AM54 °FPassing clouds.13 mph67%30.17 "Hg10 mi
11:15 AM52 °FSunny.10 mph62%30.16 "Hg10 mi
10:55 AM52 °FSunny.15 mph62%30.15 "Hg10 mi
10:35 AM52 °FPassing clouds.13 mph62%30.14 "Hg10 mi
10:15 AM52 °FPassing clouds.14 mph62%30.13 "Hg10 mi
9:55 AM52 °FPassing clouds.14 mph67%30.12 "Hg10 mi
9:35 AM52 °FBroken clouds.14 mph67%30.12 "Hg10 mi
9:15 AM52 °FScattered clouds.12 mph67%30.11 "Hg10 mi
8:55 AM50 °FBroken clouds.13 mph76%30.10 "Hg10 mi
8:35 AM52 °FPartly sunny.12 mph72%30.10 "Hg10 mi
8:15 AM50 °FPartly sunny.12 mph76%30.09 "Hg10 mi
7:55 AM50 °FOvercast.14 mph82%30.08 "Hg10 mi
7:35 AM50 °FMostly cloudy.6 mph82%30.07 "Hg10 mi
7:15 AM52 °FOvercast.10 mph77%30.06 "Hg10 mi
6:55 AM52 °FOvercast.12 mph77%30.06 "Hg10 mi
6:35 AM52 °FOvercast.8 mph82%30.05 "Hg10 mi
6:15 AM52 °FOvercast.7 mph82%30.03 "Hg10 mi
5:55 AM52 °FOvercast.7 mph82%30.02 "Hg10 mi
5:35 AM52 °FOvercast.6 mph82%30.01 "Hg10 mi
5:15 AM52 °FCloudy.8 mph82%30.00 "Hg10 mi
4:55 AM52 °FOvercast.7 mph82%29.99 "Hg10 mi
4:35 AM52 °FMostly cloudy.7 mph82%29.98 "Hg10 mi
4:15 AM52 °FMostly cloudy.13 mph82%29.97 "Hg9 mi
3:55 AM54 °FMostly cloudy.13 mph82%29.97 "Hg10 mi
3:35 AM55 °FOvercast.12 mph88%29.96 "Hg10 mi
3:15 AM55 °FLow clouds.8 mph88%29.95 "Hg8 mi
2:55 AM55 °FMostly cloudy.8 mph88%29.94 "Hg10 mi
2:35 AM55 °FOvercast.9 mph88%29.94 "Hg10 mi
2:15 AM55 °FMostly cloudy.8 mph88%29.93 "Hg10 mi
1:55 AM57 °FMostly cloudy.9 mph88%29.92 "Hg10 mi
1:35 AM57 °FOvercast.9 mph88%29.91 "Hg10 mi
1:15 AM59 °FOvercast.15 mph82%29.91 "Hg10 mi
12:55 AM61 °FMostly cloudy.9 mph88%29.91 "Hg8 mi
12:35 AM63 °FLow clouds.3 mph83%29.90 "Hg5 mi
12:15 AM63 °FMostly cloudy.No wind94%29.90 "Hg6 mi
11:55 PM
Fri, May 29
63 °FMostly cloudy.5 mph88%29.89 "Hg10 mi
11:35 PM64 °FMostly cloudy.7 mph88%29.89 "Hg10 mi
11:15 PM64 °FOvercast.6 mph88%29.88 "Hg10 mi
10:55 PM64 °FOvercast.7 mph88%29.89 "Hg10 mi
10:35 PM64 °FLow clouds.5 mph88%29.88 "Hg10 mi
9:55 PM64 °FPassing clouds.3 mph88%29.87 "Hg10 mi
9:35 PM64 °FMostly cloudy.No wind88%29.86 "Hg9 mi
9:15 PM64 °FMostly cloudy.3 mph88%29.88 "Hg8 mi
8:55 PM64 °FMostly cloudy.No wind88%29.88 "Hg8 mi
8:35 PM66 °FPartly cloudy.7 mph83%29.87 "Hg9 mi
8:15 PM70 °FThundershowers. Cloudy.13 mph73%29.87 "Hg10 mi
7:55 PM70 °FPassing clouds.3 mph78%29.85 "Hg10 mi
7:35 PM70 °FSunny.8 mph78%29.84 "Hg10 mi
7:15 PM72 °FSunny.9 mph73%29.83 "Hg10 mi
6:55 PM72 °FSunny.9 mph69%29.83 "Hg10 mi
6:35 PM72 °FSunny.13 mph73%29.83 "Hg10 mi
6:15 PM73 °FSunny.16 mph69%29.83 "Hg10 mi
5:55 PM73 °FSunny.15 mph69%29.83 "Hg10 mi
5:35 PM75 °FSunny.18 mph69%29.84 "Hg10 mi
5:15 PM75 °FScattered clouds.15 mph65%29.84 "Hg10 mi
4:55 PM75 °FPartly sunny.14 mph69%29.85 "Hg10 mi
4:35 PM77 °FPassing clouds.12 mph61%29.86 "Hg10 mi
4:15 PM75 °FSunny.8 mph69%29.86 "Hg10 mi
3:35 PM75 °FPassing clouds.10 mph65%29.87 "Hg10 mi
3:15 PM79 °FPassing clouds.15 mph61%29.87 "Hg10 mi
2:55 PM75 °FSunny.13 mph65%29.87 "Hg10 mi
2:35 PM75 °FSunny.14 mph65%29.88 "Hg9 mi
2:15 PM73 °FSunny.12 mph69%29.89 "Hg10 mi
1:55 PM73 °FSunny.13 mph69%29.90 "Hg10 mi
1:35 PM73 °FPassing clouds.13 mph69%29.91 "Hg10 mi
1:15 PM72 °FPassing clouds.8 mph69%29.92 "Hg10 mi
Weather by CustomWeather, © 2015

See weather overviewHow to use our weather pages